Hoquiam, WA

4:56 PM PDT on May 24, 2018 (GMT -0700)
Bowerman

Weather History for KHQM - October, 2011

Change the Weather History Date:

Friday, October 7, 2011

  Actual Average Record
Temperature  
Mean Temperature 55 °F 54 °F  
Max Temperature 57 °F 62 °F 80 °F (1976)
Min Temperature 53 °F 47 °F 38 °F (1961)
Degree Days  
Heating Degree Days 10 11  
Month to date heating degree days 69  
Cooling Degree Days 0 0  
Month to date cooling degree days 0  
Year to date cooling degree days 23  
Growing Degree Days 5 (Base 50)    
Moisture  
Dew Point 54 °F    
Average Humidity 95    
Maximum Humidity 100    
Minimum Humidity 80    
Precipitation  
Precipitation 0.38 in 0.15 in 1.51 in (1958)
Month to date precipitation 0.92  
Year to date precipitation 40.81  
Sea Level Pressure  
Sea Level Pressure 30.15 in    
Wind  
Wind Speed 5 mph (SE)    
Max Wind Speed 13 mph    
Max Gust Speed -    
Visibility 5 miles    
Events Rain    
T = Trace of Precipitation, MM = Missing Value Source: NWS Daily Summary

Daily Weather History Graph

Daily Weather History Graph

Search for Another Location

Airport or City:

Astronomy

Oct. 07, 2011 Rise Set
Actual Time 7:22 AM PDT 6:43 PM PDT
Civil Twilight 6:52 AM PDT 7:14 PM PDT
Nautical Twilight 6:16 AM PDT 7:49 PM PDT
Astronomical Twilight 5:41 AM PDT 8:24 PM PDT
Moon 4:41 PM PDT (10/7) 3:02 AM PDT (10/7)
Length of Visible Light 12h 22m
Length of Day
11h 21m
Waxing Gibbous, 84% of the Moon is Illuminated
Oct 7
Waxing Gibbous
Oct 11
Full
Oct 19
Last Quarter
Oct 26
New
Nov 2
First Quarter

Hourly Weather History & Observations

Time (PDT) Temp. Dew Point Humidity Pressure Visibility Wind Dir Wind Speed Gust Speed Precip Events Conditions
12:53 AM 55.9 °F 51.1 °F 84% 30.09 in 10.0 mi WSW 4.6 mph - N/A   Overcast
1:53 AM 55.9 °F 50.0 °F 80% 30.10 in 10.0 mi SW 6.9 mph - N/A   Overcast
2:49 AM 55.4 °F 51.8 °F 88% 30.10 in 10.0 mi SW 4.6 mph - N/A   Overcast
2:53 AM 55.0 °F 51.1 °F 86% 30.11 in 10.0 mi SW 5.8 mph - 0.00 in   Overcast
3:27 AM 55.4 °F 51.8 °F 88% 30.09 in 9.0 mi South 5.8 mph - 0.00 in Rain Light Rain
3:53 AM 55.0 °F 52.0 °F 89% 30.10 in 10.0 mi South 4.6 mph - 0.01 in Rain Light Rain
4:53 AM 55.0 °F 53.1 °F 93% 30.10 in 9.0 mi South 11.5 mph - 0.00 in   Overcast
5:00 AM 55.4 °F 53.6 °F 94% 30.09 in 5.0 mi South 11.5 mph - 0.01 in Rain Light Rain
5:07 AM 53.6 °F 53.6 °F 100% 30.09 in 2.5 mi SW 12.7 mph - 0.03 in Rain Rain
5:16 AM 53.6 °F 51.8 °F 94% 30.09 in 5.0 mi WSW 10.4 mph - 0.04 in Rain Light Rain
5:53 AM 53.1 °F 52.0 °F 96% 30.11 in 5.0 mi WSW 4.6 mph - 0.06 in Rain Light Rain
6:20 AM 53.6 °F 51.8 °F 94% 30.10 in 4.0 mi SW 6.9 mph - 0.00 in Rain Light Rain
6:53 AM 54.0 °F 53.1 °F 97% 30.12 in 8.0 mi West 8.1 mph - 0.02 in   Overcast
6:58 AM 53.6 °F 51.8 °F 94% 30.10 in 10.0 mi West 6.9 mph - N/A   Overcast
7:17 AM 53.6 °F 51.8 °F 94% 30.10 in 10.0 mi West 3.5 mph - N/A   Overcast
7:33 AM 53.6 °F 51.8 °F 94% 30.10 in 9.0 mi West 3.5 mph - N/A   Overcast
7:43 AM 53.6 °F 53.6 °F 100% 30.10 in 4.0 mi SW 3.5 mph - N/A   Overcast
7:50 AM 53.6 °F 51.8 °F 94% 30.11 in 2.5 mi SSW 3.5 mph - 0.00 in Rain Light Rain
7:53 AM 54.0 °F 52.0 °F 93% 30.12 in 2.0 mi SW 3.5 mph - 0.01 in Rain Light Rain
8:05 AM 53.6 °F 53.6 °F 100% 30.11 in 4.0 mi SSW 9.2 mph - 0.00 in   Overcast
8:15 AM 53.6 °F 51.8 °F 94% 30.11 in 2.5 mi SSW 6.9 mph - 0.00 in   Overcast
8:23 AM 53.6 °F 53.6 °F 100% 30.11 in 5.0 mi South 8.1 mph - 0.00 in   Overcast
8:31 AM 53.6 °F 53.6 °F 100% 30.11 in 6.0 mi South 6.9 mph - 0.00 in   Overcast
8:51 AM 53.6 °F 53.6 °F 100% 30.12 in 1.8 mi South 6.9 mph - 0.00 in   Overcast
8:53 AM 53.6 °F 53.6 °F 100% 30.12 in 1.8 mi South 6.9 mph - N/A   Overcast
9:00 AM 53.6 °F 53.6 °F 100% 30.12 in 1.5 mi South 5.8 mph - N/A   Overcast
9:13 AM 53.6 °F 53.6 °F 100% 30.12 in 2.5 mi SSW 6.9 mph - N/A   Overcast
9:21 AM 53.6 °F 53.6 °F 100% 30.12 in 3.0 mi South 4.6 mph - N/A   Overcast
9:31 AM 53.6 °F 53.6 °F 100% 30.12 in 6.0 mi South 4.6 mph - N/A   Overcast
9:53 AM 53.6 °F 53.6 °F 100% 30.13 in 7.0 mi SSE 3.5 mph - N/A   Overcast
10:34 AM 55.4 °F 53.6 °F 94% 30.13 in 2.5 mi Calm Calm - 0.00 in Rain Light Rain
10:45 AM 55.4 °F 53.6 °F 94% 30.13 in 1.5 mi Calm Calm - 0.00 in Rain Light Rain
10:53 AM 55.0 °F 53.1 °F 93% 30.15 in 1.8 mi Calm Calm - 0.01 in Rain Light Rain
11:29 AM 55.4 °F 53.6 °F 94% 30.14 in 2.5 mi Calm Calm - 0.00 in   Overcast
11:40 AM 55.4 °F 53.6 °F 94% 30.14 in 3.0 mi Calm Calm - 0.00 in   Overcast
11:53 AM 55.9 °F 54.0 °F 93% 30.15 in 10.0 mi Calm Calm - 0.00 in   Overcast
12:11 PM 55.4 °F 53.6 °F 94% 30.14 in 2.5 mi Calm Calm - 0.01 in Rain Light Rain
12:39 PM 55.4 °F 55.4 °F 100% 30.15 in 3.0 mi Calm Calm - 0.01 in Rain Light Rain
12:53 PM 57.0 °F 55.0 °F 93% 30.16 in 5.0 mi Calm Calm - 0.02 in   Overcast
1:28 PM 57.2 °F 55.4 °F 94% 30.15 in 7.0 mi South 4.6 mph - N/A   Overcast
1:53 PM 55.4 °F 55.4 °F 100% 30.15 in 5.0 mi South 3.5 mph - N/A   Overcast
2:51 PM 55.4 °F 53.6 °F 94% 30.16 in 1.8 mi Calm Calm - 0.02 in Rain Light Rain
2:52 PM 55.9 °F 55.0 °F 97% 30.17 in 1.8 mi Calm Calm - 0.02 in Rain Light Rain
3:32 PM 57.2 °F 55.4 °F 94% 30.16 in 2.0 mi Calm Calm - 0.04 in Rain Light Rain
3:50 PM 57.2 °F 55.4 °F 94% 30.16 in 4.0 mi ENE 3.5 mph - 0.04 in   Overcast
3:53 PM 57.0 °F 55.0 °F 93% 30.17 in 4.0 mi ENE 3.5 mph - 0.04 in   Overcast
4:00 PM 57.2 °F 55.4 °F 94% 30.16 in 3.0 mi ENE 3.5 mph - 0.00 in Rain Light Rain
4:03 PM 57.2 °F 55.4 °F 94% 30.16 in 2.5 mi ENE 3.5 mph - 0.00 in Rain Light Rain
4:12 PM 57.2 °F 55.4 °F 94% 30.16 in 1.8 mi ENE 4.6 mph - 0.01 in Rain Light Rain
4:30 PM 57.2 °F 55.4 °F 94% 30.16 in 2.0 mi ENE 3.5 mph - 0.01 in Rain Light Rain
4:37 PM 57.2 °F 55.4 °F 94% 30.16 in 1.8 mi ENE 3.5 mph - 0.02 in Rain Light Rain
4:50 PM 57.2 °F 55.4 °F 94% 30.16 in 2.0 mi Calm Calm - 0.02 in Rain Light Rain
4:53 PM 57.0 °F 55.9 °F 96% 30.17 in 2.0 mi Calm Calm - 0.02 in Rain Light Rain
5:17 PM 57.2 °F 55.4 °F 94% 30.16 in 1.8 mi East 3.5 mph - 0.01 in Rain Light Rain
5:25 PM 57.2 °F 55.4 °F 94% 30.16 in 1.8 mi East 4.6 mph - 0.01 in Rain Light Rain
5:45 PM 57.2 °F 55.4 °F 94% 30.16 in 2.5 mi East 3.5 mph - 0.02 in   Overcast
5:53 PM 57.0 °F 55.9 °F 96% 30.17 in 2.5 mi East 3.5 mph - 0.02 in   Overcast
6:02 PM 57.2 °F 55.4 °F 94% 30.16 in 3.0 mi Calm Calm - N/A   Overcast
6:53 PM 57.0 °F 55.0 °F 93% 30.19 in 10.0 mi East 3.5 mph - 0.00 in   Overcast
7:53 PM 57.0 °F 55.9 °F 96% 30.20 in 9.0 mi East 3.5 mph - N/A   Overcast
8:15 PM 57.2 °F 55.4 °F 94% 30.19 in 10.0 mi East 3.5 mph - 0.01 in   Overcast
8:27 PM 57.2 °F 55.4 °F 94% 30.19 in 10.0 mi Calm Calm - 0.01 in   Overcast
8:40 PM 57.2 °F 55.4 °F 94% 30.19 in 7.0 mi Calm Calm - 0.01 in   Overcast
8:53 PM 57.0 °F 55.9 °F 96% 30.20 in 10.0 mi Calm Calm - 0.01 in   Overcast
9:00 PM 57.2 °F 55.4 °F 94% 30.19 in 10.0 mi NNE 3.5 mph - N/A   Overcast
9:10 PM 57.2 °F 55.4 °F 94% 30.20 in 10.0 mi Calm Calm - N/A   Overcast
9:20 PM 57.2 °F 55.4 °F 94% 30.19 in 5.0 mi Calm Calm - 0.00 in Rain Light Rain
9:32 PM 57.2 °F 55.4 °F 94% 30.20 in 2.5 mi NE 3.5 mph - 0.02 in Rain Light Rain
9:44 PM 57.2 °F 55.4 °F 94% 30.20 in 2.0 mi NNE 3.5 mph - 0.05 in Rain Rain
9:53 PM 57.0 °F 55.9 °F 96% 30.21 in 2.0 mi NE 3.5 mph - 0.06 in Rain Light Rain
10:16 PM 55.4 °F 55.4 °F 100% 30.20 in 3.0 mi NNE 4.6 mph - 0.04 in Rain Light Rain
10:20 PM 55.4 °F 55.4 °F 100% 30.20 in 2.5 mi NE 5.8 mph - 0.04 in Rain Light Rain
10:38 PM 55.4 °F 55.4 °F 100% 30.20 in 3.0 mi NE 4.6 mph - 0.07 in Rain Light Rain
10:49 PM 55.4 °F 55.4 °F 100% 30.21 in 2.5 mi NE 5.8 mph - 0.08 in Rain Light Rain
10:53 PM 55.9 °F 54.0 °F 93% 30.22 in 2.5 mi NNE 4.6 mph - 0.08 in Rain Light Rain
11:00 PM 55.4 °F 53.6 °F 94% 30.21 in 3.0 mi NNE 5.8 mph - 0.00 in Rain Light Rain
11:15 PM 55.4 °F 53.6 °F 94% 30.21 in 4.0 mi NNE 3.5 mph - 0.00 in   Overcast
11:22 PM 55.4 °F 53.6 °F 94% 30.21 in 5.0 mi NE 4.6 mph - 0.00 in   Overcast
11:53 PM 55.0 °F 54.0 °F 96% 30.22 in 10.0 mi NNE 4.6 mph - 0.00 in   Overcast